パンスターズ彗星

C/2021 QM45 ( PanSTARRS )

English version
Home page
Updated on May 13, 2024

---------------------------------------------------------------------

・ プロフィール

発見日 2021年8月17日
発見光度 22.4等
発見者 Pan-STARRS 1 telescope (Haleakala)

・ 写真集

・ 軌道要素

Epoch 2022 Aug. 9.0 TT = JDT 2459800.5
T 2022 Aug. 13.43390 TT                                 Rudenko
q   2.7732548            (2000.0)            P               Q
z  +0.0028349      Peri.   72.80444     +0.37735461     -0.92534613
 +/-0.0000076      Node   354.58858     +0.63128319     +0.28593434
e   0.9921382      Incl.   22.82233     +0.67755814     +0.24894998
>From 269 observations 2021 Aug. 4-2022 Nov. 4, mean residual 0".7.

・ 光度変化

        m1 = 8.5 + 5 logΔ + 15.0 log r

---------------------------------------------------------------------

軌道要素はM.P.E.C. 2022-V95に掲載されたものです。
光度グラフはComet for Windowsで作成したものです。

---------------------------------------------------------------------

Copyright(C) Seiichi Yoshida (comet@aerith.net). All rights reserved.